Regional Weather Roundup
Issued by NWS

Home | Current Version | Previous Version | Graphics & Text | Print | Product List | Glossary On
Versions: 1 2 3 4 5 6 7 8 9 10 11 12 13 14 15 16 17 18 19 20 21 22 23 24 25 26 27 28 29 30 31 32 33 34 35 36 37 38 39 40 41 42 43 44 45 46 47 48 49 50
696
ASUS43 KFSD 271710
RWRSD

WEATHER ROUNDUP FOR SOUTH DAKOTA
NATIONAL WEATHER SERVICE SIOUX FALLS SD
1200 PM CDT TUE SEP 27 2016

NOTE: "FAIR" INDICATES FEW OR NO CLOUDS BELOW 12,000 FEET WITH NO
SIGNIFICANT WEATHER AND/OR OBSTRUCTIONS TO VISIBILITY.


SDZ001>005-009-010-012>017-271800-
NORTHWEST AND NORTH CENTRAL SOUTH DAKOTA

CITY           SKY/WX    TMP DP  RH WIND       PRES   REMARKS
BUFFALO          N/A     73  48  41 NW10      29.97F
MOBRIDGE       SUNNY     66  40  38 W6        29.97F
$$

SDZ012>016-024>037-041>051-057-063-072>074-271800-
SOUTHWEST AND SOUTH CENTRAL SOUTH DAKOTA

CITY           SKY/WX    TMP DP  RH WIND       PRES   REMARKS
RAPID CTY ARPT SUNNY     74  43  32 VRB5      30.06F
PIERRE         SUNNY     69  44  40 W8        29.98F
CUSTER         SUNNY     72  33  24 NW9       30.18F
ELLSWORTH AFB  SUNNY     76  43  31 CALM      30.05F
PHILIP         SUNNY     75  45  34 W10       30.01F
PINE RIDGE     SUNNY     71  46  40 W12       30.09F
WINNER         FAIR      76  43  30 W10       30.01F
$$

SDZ004>011-016>023-039-040-271800-
NORTHEAST SOUTH DAKOTA

CITY           SKY/WX    TMP DP  RH WIND       PRES   REMARKS
ABERDEEN       SUNNY     67  34  29 NW14      29.96F
WATERTOWN      FAIR      63  36  36 NW14      29.94F
SISSETON         N/A     63  35  35 N17G23    29.91F
$$

SDZ017-020-022-023-036>040-048>070-271800-
SOUTHEAST SOUTH DAKOTA

CITY           SKY/WX    TMP DP  RH WIND       PRES   REMARKS
SIOUX FALLS    FAIR      68  40  35 W16G22    29.96F
HURON          SUNNY     68  39  34 NW12      29.96F
CHAMBERLAIN    SUNNY     72  47  40 W8        30.00F
MITCHELL       SUNNY     70  41  34 NW10      29.99F
YANKTON        FAIR      70  43  37 W14       29.98F
$$

ABBREVIATIONS USED IN REMARKS
   TC - TEMPERATURE IN CELSIUS
  WCI - WIND CHILL INDEX
   HX - HEAT INDEX
  VSB - VISIBILITY





USA.gov is the U.S. government's official web portal to all federal, state and local government web resources and services.